| time (UTC) | temp C | wind direction | speed KPH | gust KPH | rain 1hr cm | rain 24hr cm | rain mn cm | humidity % | barometer mb |
| 20260507070057 | 7 | 207 | 0.0 | 4.8 | 0.00 | 0.00 | 0.00 | 68 | 1015.0 |
| 20260507064552 | 7 | 220 | 0.0 | 6.4 | 0.00 | 0.00 | 0.00 | 69 | 1014.9 |
| 20260507063048 | 6 | 206 | 1.6 | 4.8 | 0.00 | 0.00 | 0.00 | 69 | 1014.8 |
| 20260507061545 | 6 | 200 | 1.6 | 6.4 | 0.00 | 0.00 | 0.00 | 69 | 1014.8 |
| 20260507060040 | 5 | 213 | 1.6 | 8.0 | 0.00 | 0.00 | 0.00 | 69 | 1014.7 |
| 20260507054535 | 5 | 220 | 1.6 | 9.7 | 0.00 | 0.00 | 0.00 | 72 | 1014.5 |
| 20260507053054 | 4 | 211 | 1.6 | 6.4 | 0.00 | 0.00 | 0.00 | 73 | 1014.5 |
| 20260507051538 | 4 | 195 | 0.0 | 12.9 | 0.00 | 0.00 | 0.00 | 74 | 1014.3 |
| 20260507050032 | 3 | 195 | 1.6 | 8.0 | 0.00 | 0.00 | 0.00 | 74 | 1014.0 |
| 20260507044524 | 3 | 213 | 0.0 | 6.4 | 0.00 | 0.00 | 0.00 | 75 | 1013.9 |
| 20260507043021 | 3 | 188 | 1.6 | 4.8 | 0.00 | 0.00 | 0.00 | 75 | 1013.8 |
| 20260507041516 | 3 | 189 | 3.2 | 8.0 | 0.00 | 0.00 | 0.00 | 75 | 1013.7 |
| 20260507040010 | 2 | 185 | 3.2 | 12.9 | 0.00 | 0.00 | 0.00 | 75 | 1013.7 |
| 20260507034516 | 2 | 181 | 8.0 | 12.9 | 0.00 | 0.00 | 0.00 | 74 | 1013.6 |
| 20260507033013 | 2 | 183 | 1.6 | 8.0 | 0.00 | 0.00 | 0.00 | 73 | 1013.4 |
| 20260507031503 | 2 | 186 | 1.6 | 4.8 | 0.00 | 0.00 | 0.00 | 72 | 1013.2 |
| 20260507030101 | 3 | 195 | 1.6 | 4.8 | 0.00 | 0.00 | 0.00 | 72 | 1013.0 |
| 20260507024605 | 3 | 191 | 1.6 | 3.2 | 0.00 | 0.00 | 0.00 | 72 | 1012.9 |
| 20260507023058 | 2 | 197 | 0.0 | 8.0 | 0.00 | 0.00 | 0.00 | 76 | 1012.9 |
| 20260507021555 | 2 | 150 | 0.0 | 4.8 | 0.00 | 0.00 | 0.00 | 79 | 1012.9 |
| 20260507020052 | 2 | 89 | 0.0 | 0.0 | 0.00 | 0.00 | 0.00 | 78 | 1012.8 |
| 20260507014600 | 3 | 89 | 0.0 | 4.8 | 0.00 | 0.00 | 0.00 | 77 | 1012.6 |
| 20260507013050 | 3 | 89 | 0.0 | 0.0 | 0.00 | 0.00 | 0.00 | 76 | 1012.6 |
| 20260507011545 | 3 | 89 | 0.0 | 0.0 | 0.00 | 0.00 | 0.00 | 75 | 1012.5 |
| 20260507010041 | 4 | 89 | 0.0 | 0.0 | 0.00 | 0.00 | 0.00 | 73 | 1012.4 |
| 20260507004539 | 5 | 89 | 0.0 | 0.0 | 0.00 | 0.00 | 0.00 | 70 | 1012.4 |
| 20260507003033 | 6 | 87 | 1.6 | 4.8 | 0.00 | 0.00 | 0.00 | 69 | 1012.4 |
| 20260507001535 | 6 | 170 | 0.0 | 6.4 | 0.00 | 0.00 | 0.00 | 68 | 1012.3 |
| 20260507000028 | 6 | 220 | 1.6 | 8.0 | 0.00 | 0.00 | 0.00 | 67 | 1012.3 |
| 20260506234526 | 6 | 206 | 1.6 | 8.0 | 0.00 | 0.00 | 0.00 | 66 | 1012.2 |
| 20260506233024 | 6 | 112 | 1.6 | 6.4 | 0.00 | 0.00 | 0.00 | 64 | 1012.2 |
| 20260506231523 | 7 | 182 | 1.6 | 16.1 | 0.00 | 0.00 | 0.00 | 63 | 1012.2 |
| 20260506230019 | 7 | 210 | 1.6 | 8.0 | 0.00 | 0.00 | 0.00 | 62 | 1012.0 |
| 20260506224518 | 7 | 155 | 1.6 | 19.3 | 0.00 | 0.00 | 0.00 | 60 | 1012.1 |
| 20260506223017 | 7 | 165 | 1.6 | 17.7 | 0.00 | 0.00 | 0.00 | 60 | 1012.1 |
| 20260506221515 | 7 | 208 | 0.0 | 9.7 | 0.00 | 0.00 | 0.00 | 60 | 1012.1 |
| 20260506220029 | 7 | 191 | 1.6 | 4.8 | 0.00 | 0.00 | 0.00 | 61 | 1012.0 |
| 20260506214512 | 7 | 181 | 1.6 | 4.8 | 0.00 | 0.00 | 0.00 | 60 | 1011.9 |
| 20260506213011 | 7 | 145 | 1.6 | 11.3 | 0.00 | 0.00 | 0.00 | 59 | 1011.9 |
| 20260506211511 | 7 | 166 | 0.0 | 4.8 | 0.00 | 0.00 | 0.00 | 57 | 1011.9 |
| 20260506210013 | 7 | 104 | 1.6 | 4.8 | 0.00 | 0.00 | 0.00 | 55 | 1011.8 |
| 20260506204510 | 7 | 149 | 1.6 | 4.8 | 0.00 | 0.00 | 0.00 | 55 | 1011.8 |
| 20260506203018 | 8 | 118 | 0.0 | 3.2 | 0.00 | 0.00 | 0.00 | 54 | 1011.8 |
| 20260506201509 | 8 | 132 | 1.6 | 3.2 | 0.00 | 0.00 | 0.00 | 51 | 1011.9 |
| 20260506200008 | 8 | 118 | 1.6 | 17.7 | 0.00 | 0.00 | 0.00 | 50 | 1012.0 |
| 20260506194508 | 9 | 138 | 1.6 | 9.7 | 0.00 | 0.00 | 0.00 | 48 | 1012.0 |
| 20260506193007 | 10 | 141 | 0.0 | 4.8 | 0.00 | 0.00 | 0.00 | 45 | 1011.8 |
| 20260506191507 | 10 | 123 | 0.0 | 3.2 | 0.00 | 0.00 | 0.00 | 39 | 1011.7 |
| 20260506190007 | 10 | 102 | 0.0 | 1.6 | 0.00 | 0.00 | 0.00 | 37 | 1011.7 |
| 20260506184506 | 11 | 102 | 0.0 | 4.8 | 0.00 | 0.00 | 0.00 | 35 | 1011.6 |
| 20260506183006 | 11 | 85 | 1.6 | 11.3 | 0.00 | 0.00 | 0.00 | 34 | 1011.3 |
| 20260506181505 | 11 | 90 | 0.0 | 3.2 | 0.00 | 0.00 | 0.00 | 33 | 1011.3 |
| 20260506180006 | 12 | 82 | 1.6 | 8.0 | 0.00 | 0.00 | 0.00 | 32 | 1011.2 |
| 20260506174501 | 12 | 119 | 0.0 | 4.8 | 0.00 | 0.00 | 0.00 | 33 | 1011.1 |
| 20260506173135 | 12 | 94 | 1.6 | 3.2 | 0.00 | 0.00 | 0.00 | 32 | 1011.1 |
| 20260506171558 | 12 | 116 | 1.6 | 3.2 | 0.00 | 0.00 | 0.00 | 32 | 1011.1 |
| 20260506170059 | 12 | 127 | 1.6 | 6.4 | 0.00 | 0.00 | 0.00 | 32 | 1011.1 |
| 20260506164557 | 12 | 112 | 1.6 | 4.8 | 0.00 | 0.00 | 0.00 | 31 | 1011.1 |
| 20260506163104 | 13 | 113 | 0.0 | 6.4 | 0.00 | 0.00 | 0.00 | 32 | 1010.9 |
| 20260506161558 | 13 | 92 | 1.6 | 6.4 | 0.00 | 0.00 | 0.00 | 31 | 1011.0 |
| 20260506160056 | 13 | 89 | 0.0 | 4.8 | 0.00 | 0.00 | 0.00 | 31 | 1011.0 |
| 20260506154556 | 13 | 99 | 0.0 | 4.8 | 0.00 | 0.00 | 0.00 | 31 | 1011.0 |
| 20260506153057 | 13 | 184 | 0.0 | 14.5 | 0.00 | 0.00 | 0.00 | 30 | 1011.1 |
| 20260506151553 | 13 | 166 | 1.6 | 16.1 | 0.00 | 0.00 | 0.00 | 31 | 1011.3 |
| 20260506150057 | 13 | 191 | 0.0 | 6.4 | 0.00 | 0.00 | 0.00 | 31 | 1011.3 |
| 20260506144603 | 13 | 112 | 1.6 | 6.4 | 0.00 | 0.00 | 0.00 | 31 | 1011.4 |
| 20260506143051 | 13 | 180 | 1.6 | 4.8 | 0.00 | 0.00 | 0.00 | 30 | 1011.4 |
| 20260506141550 | 13 | 253 | 0.0 | 14.5 | 0.00 | 0.00 | 0.00 | 28 | 1011.5 |
| 20260506140048 | 13 | 287 | 0.0 | 9.7 | 0.00 | 0.00 | 0.00 | 29 | 1011.5 |
| 20260506134546 | 13 | 198 | 0.0 | 8.0 | 0.00 | 0.00 | 0.00 | 29 | 1011.8 |
| 20260506133046 | 13 | 199 | 0.0 | 14.5 | 0.00 | 0.00 | 0.00 | 28 | 1011.7 |
| 20260506131543 | 12 | 88 | 0.0 | 6.4 | 0.00 | 0.00 | 0.00 | 27 | 1011.9 |
| 20260506130042 | 13 | 108 | 1.6 | 12.9 | 0.00 | 0.00 | 0.00 | 28 | 1012.0 |
| 20260506124541 | 12 | 183 | 4.8 | 17.7 | 0.00 | 0.00 | 0.00 | 29 | 1012.1 |
| 20260506123039 | 12 | 228 | 1.6 | 11.3 | 0.00 | 0.00 | 0.00 | 28 | 1012.2 |
| 20260506121538 | 12 | 236 | 1.6 | 8.0 | 0.00 | 0.00 | 0.00 | 27 | 1012.3 |
| 20260506120038 | 12 | 162 | 1.6 | 9.7 | 0.00 | 0.00 | 0.00 | 29 | 1012.5 |
| 20260506114535 | 12 | 178 | 1.6 | 14.5 | 0.00 | 0.00 | 0.00 | 28 | 1012.5 |
| 20260506113032 | 11 | 154 | 0.0 | 4.8 | 0.00 | 0.00 | 0.00 | 29 | 1012.5 |
| 20260506111530 | 11 | 120 | 1.6 | 8.0 | 0.00 | 0.00 | 0.00 | 26 | 1012.7 |
| 20260506110029 | 11 | 69 | 1.6 | 3.2 | 0.00 | 0.00 | 0.00 | 24 | 1012.9 |
| 20260506104529 | 11 | 112 | 1.6 | 11.3 | 0.00 | 0.00 | 0.00 | 25 | 1013.0 |
| 20260506103026 | 11 | 140 | 0.0 | 3.2 | 0.00 | 0.00 | 0.00 | 26 | 1013.3 |
| 20260506101524 | 11 | 116 | 1.6 | 8.0 | 0.00 | 0.00 | 0.00 | 27 | 1013.3 |
| 20260506100021 | 11 | 200 | 1.6 | 9.7 | 0.00 | 0.00 | 0.00 | 28 | 1013.4 |
| 20260506094520 | 10 | 152 | 0.0 | 6.4 | 0.00 | 0.00 | 0.00 | 30 | 1013.3 |
| 20260506093018 | 10 | 118 | 1.6 | 6.4 | 0.00 | 0.00 | 0.00 | 29 | 1013.4 |
| 20260506091518 | 10 | 185 | 0.0 | 9.7 | 0.00 | 0.00 | 0.00 | 33 | 1013.4 |
| 20260506090019 | 10 | 132 | 1.6 | 6.4 | 0.00 | 0.00 | 0.00 | 31 | 1013.5 |
| 20260506084520 | 10 | 245 | 1.6 | 11.3 | 0.00 | 0.00 | 0.00 | 31 | 1013.8 |
| 20260506083004 | 10 | 212 | 0.0 | 9.7 | 0.00 | 0.00 | 0.00 | 35 | 1013.8 |
| 20260506081600 | 10 | 119 | 0.0 | 12.9 | 0.00 | 0.00 | 0.00 | 34 | 1013.8 |
| 20260506080108 | 10 | 121 | 1.6 | 3.2 | 0.00 | 0.00 | 0.00 | 35 | 1013.7 |
| 20260506073102 | 9 | 189 | 0.0 | 6.4 | 0.00 | 0.00 | 0.00 | 40 | 1013.7 |
| 20260506071545 | 9 | 101 | 1.6 | 3.2 | 0.00 | 0.00 | 0.00 | 41 | 1013.6 |